Regional Weather Roundup
Issued by NWS

Home | Current Version | Previous Version | Graphics & Text | Print | Product List | Glossary On
Versions: 1 2 3 4 5 6 7 8 9 10 11 12 13 14 15 16 17 18 19 20 21 22 23 24 25 26 27 28 29 30 31 32 33 34 35 36 37 38 39 40 41 42 43 44 45 46 47 48 49 50
000
ASUS43 KIND 290109
RWRIN

WEATHER ROUNDUP FOR INDIANA
NATIONAL WEATHER SERVICE INDIANAPOLIS IN
900 PM EDT THU MAY 28 2015

NOTE: "FAIR" INDICATES FEW OR NO CLOUDS BELOW 12,000 FEET WITH NO
SIGNIFICANT WEATHER AND/OR OBSTRUCTIONS TO VISIBILITY.

* - STATION DOES NOT REPORT WEATHER SUCH AS PRECIPITATION OR FOG.

+ - STATION NOT QUALITY CONTROLLED BY THE NATIONAL WEATHER SERVICE.
    USE DATA WITH CAUTION...ESPECIALLY DEWPOINT AND RELATIVE
    HUMIDITY OBSERVATIONS.

INZ001>003-010>013-019-020-290200-
NORTHWEST INDIANA

CITY           SKY/WX    TMP DP  RH WIND       PRES   REMARKS
GARY /AIRPORT/ PTCLDY    70  55  60 NE7       30.11
KNOX *+        PTCLDY    73  55  53 E6        30.10F
LA PORTE +     PTCLDY    78  56  47 E6        30.13S
MICHIGAN CITY+ PTCLDY    73  54  49 CALM      30.12S
MONTICELLO +   PTCLDY    76  59  55 CALM      30.09F
RENSSELAER +   PTCLDY    77  52  41 SE3       30.10S
VALPARAISO     PTCLDY    74  57  55 E5        30.11F

$$

LMZ046-743>745-290200-
SOUTHERN LAKE MICHIGAN

STATION/POSITION TIME  TEMP    WIND        PRES    WAVE
                       AIR SEA DIR/SP/G            HT
                 (UTC) (F)     (DEG/KT/KT) (MB)    (FT)
BURNS HARBOR     0100   62      80/ 10/ 11 1019.6F
MICHIGAN CITY    0100   65      30/  8/  9   N/A
5NW MICH CITY    0100   59 55   60/  8/ 10   N/A     1

$$

INZ004-005-014>016-021>024-290200-
NORTH CENTRAL INDIANA

CITY           SKY/WX    TMP DP  RH WIND       PRES   REMARKS
ELKHART        CLEAR     73  55  53 E6        30.14F
GOSHEN         CLEAR     71  59  65 E7        30.14S
LOGANSPORT +   PTCLDY    73  50  43 E5        30.11F
PERU/GRISSOM   PTCLDY    78  60  54 SE3       30.11S
ROCHESTER +    PTCLDY    75  61  60 E5        30.13S
SOUTH BEND     PTCLDY    77  54  44 E7        30.13F
WARSAW +       CLEAR     72  61  68 E6        30.14S

$$

INZ006>009-017-018-025>027-290200-
NORTHEAST INDIANA

CITY           SKY/WX    TMP DP  RH WIND       PRES   REMARKS
ANGOLA *+      CLEAR     73  64  73 E5        30.17S
AUBURN +       CLEAR     70  55  60 E3        30.17S
FORT WAYNE     MOCLDY    74  60  61 E6        30.15S
HUNTINGTON +   MOCLDY    75  59  56 E3        30.13S

$$

INZ028-029-035-036-043>045-051>053-290200-
WEST CENTRAL INDIANA

CITY           SKY/WX    TMP DP  RH WIND       PRES   REMARKS
CRAWFORDSVL +  CLEAR     75  53  45 SE5       30.11S
GREENCASTLE +  PTCLDY    72  59  64 SE5       30.12S
LAFAYETTE      CLEAR     72  61  68 CALM      30.09S
TERRE HAUTE    PTCLDY    78  63  59 SE8       30.10R

$$

INZ030>032-037>040-046>048-054>057-064-065-290200-
CENTRAL INDIANA

CITY           SKY/WX    TMP DP  RH WIND       PRES   REMARKS
CP ATTERBURY + PTCLDY    73  63  68 CALM      30.13S
COLUMBUS       CLEAR     75  59  57 SE7       30.13F
FRANKFORT +      N/A    N/A N/A N/A MISG        N/A
GREENWOOD *+   PTCLDY    77  59  53 S7        30.14R
INDIANAPOLIS   PTCLDY    77  61  57 S8        30.11R
-EAGLE CREEK   CLEAR     78  61  55 S6        30.11S
KOKOMO *+      PTCLDY    75  57  53 SE6       30.11S
MARION +       PTCLDY    76  56  49 S5        30.14S
MT COMFORT *+  PTCLDY    79  52  38 S8        30.14R
SHELBYVILLE    PTCLDY    79  63  57 SE7       30.12S
ZIONSVILLE +   PTCLDY    79  58  48 S3        30.13S

$$

INZ033-034-041-042-049-050-058-059-290200-
EAST CENTRAL INDIANA

CITY           SKY/WX    TMP DP  RH WIND       PRES   REMARKS
MUNCIE         PTCLDY    79  59  50 S5        30.14S

$$

INZ060-061-067>069-081>083-085>088-290200-
SOUTHWEST INDIANA

CITY           SKY/WX    TMP DP  RH WIND       PRES   REMARKS
EVANSVILLE     CLEAR     79  64  60 SE3       30.09S
HUNTINGBURG *+ CLEAR     73  64  73 E5        30.12R
WASHINGTON +   PTCLDY    78  63  60 S7        30.10S

$$

INZ062-063-066-070>080-084-089>092-290200-
SOUTH CENTRAL AND SOUTHEAST INDIANA

CITY           SKY/WX    TMP DP  RH WIND       PRES   REMARKS
BLOOMINGTON    PTCLDY    76  65  68 SE5       30.12S
MADISON *+     PTCLDY    73  63  68 S3        30.16S
NORTH VERNON + PTCLDY    75  63  64 CALM      30.15S
SEYMOUR +      PTCLDY    77  63  61 SE5       30.12F

$$



USA.gov is the U.S. government's official web portal to all federal, state and local government web resources and services.